Regional Weather Roundup
Issued by NWS Charleston, SC

Current Version | Previous Version | Graphics & Text | Print | Product List | Glossary On
Versions: 1 2 3 4 5 6 7 8 9 10 11 12 13 14 15 16 17 18 19 20 21 22 23 24 25 26 27 28 29 30 31 32 33 34 35 36 37 38 39 40 41 42 43 44 45 46 47 48 49 50
000
ASUS42 KCHS 310528
RWRCHS

REGIONAL WEATHER ROUNDUP
NATIONAL WEATHER SERVICE CHARLESTON SC
100 AM EDT TUE MAY 31 2016

NOTE: "FAIR" INDICATES FEW OR NO CLOUDS BELOW 12,000 FEET WITH NO
SIGNIFICANT WEATHER AND/OR OBSTRUCTIONS TO VISIBILITY.

NOT ALL STATIONS ARE QUALITY CONTROLLED. USE DATA WITH CAUTION...
ESPECIALLY DEWPOINT OBSERVATIONS.

SCZ027-030-031-034>040-042>050-310600-
...SOUTHEAST SOUTH CAROLINA...

CITY           SKY/WX    TMP DP  RH WIND       PRES   REMARKS
N CHARLESTON   CLOUDY    72  69  90 W7        29.89F
WATERFRONT PRK   N/A     72  71  97 VRB2      29.87F
MOUNT PLEASANT CLOUDY    72  72 100 CALM      29.88S FOG
JOHNS ISLAND   CLOUDY    72  72 100 CALM      29.89F
PINOPOLIS        N/A     75  72  88 NE7       29.83R
MONCKS CORNER  FAIR      66  64  94 CALM      29.89S FOG
SUMMERVILLE    CLOUDY    70  70 100 CALM      29.91F FOG
BEAUFORT MCAS  CLOUDY    73  71  93 CALM      29.90F
BEAUFORT ARPT  LGT RAIN  72  70  94 CALM      29.90F
HILTON HEAD IS PTCLDY    72  72 100 CALM      29.90F
WALTERBORO     CLOUDY    72  72 100 CALM      29.91F
ALLENDALE      CLOUDY    72  72 100 CALM      29.90F

...SOUTHERN MIDLANDS AND PEE DEE...

CITY           SKY/WX    TMP DP  RH WIND       PRES   REMARKS
GEORGETOWN     CLOUDY    70  70 100 CALM      29.89F
KINGSTREE      FOG       70  68  94 CALM      29.89F VSB 1/4
ORANGEBURG     PTCLDY    70  68  93 CALM      29.90F FOG
BARNWELL       FAIR      72  72 100 CALM      29.92F
AIKEN          FAIR      68  64  88 CALM      29.95F
MANNING        CLOUDY    70  70 100 CALM      29.90S
COLUMBIA       PTCLDY    74  69  85 N5        29.91F
SUMTER         CLOUDY    72  70  94 NE6       29.89S
FLORENCE       MOCLDY    73  70  90 NE6       29.90F
MYRTLE BEACH   MOCLDY    73  64  73 E6        29.90F
N MYRTLE BEACH PTCLDY    75  70  84 E6        29.88F

$$

GAZ063-065-086>088-099>101-113>116-118-119-134>141-150-310600-
...SOUTHEAST GEORGIA...

CITY           SKY/WX    TMP DP  RH WIND       PRES   REMARKS
SAVANNAH ARPT  CLEAR     73  68  84 E3        29.91F
HUNTER AAF     CLEAR     75  73  93 CALM      29.88F
FORT STEWART   CLEAR     73  69  87 CALM      29.88F
STATESBORO     CLEAR     70  69  98 CALM      29.91S
SYLVANIA       CLEAR     71  69  93 CALM      29.92F
CLAXTON        FAIR      70  69  98 CALM      29.90F

...CSRA...CENTRAL AND FAR SOUTHEAST GEORGIA...

CITY           SKY/WX    TMP DP  RH WIND       PRES   REMARKS
THOMSON        CLEAR     71  70  96 CALM      29.96F
AUGUSTA-BUSH   CLEAR     69  66  90 CALM      29.91F
AUGUSTA-DANIEL CLEAR     75  67  76 S5        29.93F
SWAINSBORO     FAIR      70  66  88 CALM      29.92S
VIDALIA        MOCLDY    72  68  88 CALM      29.91F
EASTMAN        FAIR      69  69 100 CALM      29.94S
HAZLEHURST     CLOUDY    76  69  79 CALM      29.90F
ALMA           CLEAR     72  66  81 CALM      29.91F
WAYCROSS       CLEAR     72  67  86 SW5       29.92F
JESUP          FAIR      64  63  94 CALM      29.90F
BAXLEY         MOCLDY    72  70  94 CALM      29.91S
BRUNSWICK      CLEAR     79  72  78 SW9       29.91S
SAINT SIMONS   CLEAR     77  72  84 SW13      29.90F

$$

SCZ027-028-034-036>038-045-046-048>050-GAZ119-141-310600-
...LAKE AND SUPPLEMENTAL COASTAL OBSERVATIONS...

STATION/POSITION TIME  TEMP    WIND        PRES    WAVE   SWELL
                       AIR SEA DIR/SP/G            HT/PER HT/PER/DIR
                 (UTC) (F)     (DEG/KT/KT) (MB)    (FT/S) (FT/S/D)
WINYAH BAY       0400   74      80/  8     1011.0F
LAKE MURRAY      0400   74      20/  2/  3 1013.2S
ACE BASIN NERRS  0400   72        CALM     1013.0S
FORT PULASKI     0500   75 76   60/  4/  4 1012.8F
SAPELO ISLAND    0500   76     200/  3     1012.0F

$$

ANZ835-935-AMZ111-154-330-350-352-354-370-450-454-472-310600-
...C-MAN AND BUOY OBSERVATIONS...

STATION/POSITION TIME  TEMP    WIND        PRES    WAVE   SWELL
                       AIR SEA DIR/SP/G            HT/PER HT/PER/DIR
                 (UTC) (F)     (DEG/KT/KT) (MB)    (FT/S) (FT/S/D)
BUOY 41004       0450   74 77  250/ 14/ 16 1011.2F   3/ 8   3/ 8
BUOY 41008       0450   78 77  170/ 12/ 14 1012.1F   3/ 8   2/ 90/ 8
FOLLY BEACH CMAN 0500   71     260/  4/  5 1012.4F
CAPERS NEARSHORE 0508   73 76  350/ 12/ 16 1012.2R
FRIPP NEARSHORE  0508   73 76  120/  4/  6 1011.9F


STATION/POSITION TIME  TEMP    WIND        PRES    WAVE   SWELL
                       AIR SEA DIR/SP/G            HT/PER HT/PER/DIR
                 (UTC) (F)     (DEG/KT/KT) (MB)    (FT/S) (FT/S/D)
5E ST. MARYS GA  0501      79                N/A     3/ 7
FRYING PAN BUOY  0500   77 78  160/  2/  4 1012.0F
BUOY 41025       0450   77 80  220/ 10/ 12 1013.1F   6/ 8   5/150/ 8
CAPE LOOKOUT NC  0500   75     140/  6/  7 1012.8F
BUOY 41002       0450   76 76  160/ 12/ 14 1015.0F   5/ 8   5/100/ 8
BUOY 41010       0420   79 80  190/ 10/ 12 1014.9F
ST AUGUSTINE FL  0500   73 80  240/ 10/ 13 1014.4F


$$




USA.gov is the U.S. government's official web portal to all federal, state and local government web resources and services.